Header for Extended Forecast Station List Page

Search by: ID | Name | Date | Parm | Value | Avg | % Avg
Sort by: ID | Name | Date | Parm | Value | Avg | % Avg

Enter search or view all records.

Click on id for station plot
#IDNameDateParmValueAvg% Avg
0HWRI1BIG LOST-AT HOWELL RANCH NEAR CHILLY05-10-2021DISCHARGE (KAF)1815511
1MACI1BIG LOST-MACKAY RESERVOIR NEAR MACKAY05-10-2021INFLOW (KAF)1715511
2HALI1BIG WOOD-AT HAILEY05-10-2021DISCHARGE (KAF)6720633
3MAGI1BIG WOOD-MAGIC DAM05-10-2021INFLOW (KAF)2515816
4BITM8BITTERROOT-NEAR MISSOULA05-10-2021DISCHARGE (KAF)844106379
5BONM8BLACKFOOT-NEAR BONNER05-10-2021DISCHARGE (KAF)59269585
6BIGI1BOISE-AT GLENWOOD BRIDGE05-10-2021DISCHARGE (KAF)26538070
7LUCI1BOISE-LUCKY PEAK DAM05-10-2021INFLOW (KAF)797MM
8PARI1BOISE-NEAR PARMA05-10-2021DISCHARGE (KAF)23033070
9HOTI1BRUNEAU-NEAR HOT SPRINGS05-10-2021DISCHARGE (KAF)2012516
10BULO3BULLY CREEK-BULLY CREEK DAM05-10-2021INFLOW (KAF)M0M
11BUDW1BUMPING-BUMPING LAKE DAM05-10-2021INFLOW (KAF)879493
12CHDW1CHELAN-LAKE CHELAN DAM05-10-2021INFLOW (KAF)1010906112
13ABOM8CLARK FORK-ABOVE MISSOULA05-10-2021DISCHARGE (KAF)1051122985
14DLGM8CLARK FORK-AT DEER LODGE05-10-2021DISCHARGE (KAF)466471
15SRGM8CLARK FORK-AT ST REGIS05-10-2021DISCHARGE (KAF)2367306177
16BELM8CLARK FORK-BELOW MISSOULA05-10-2021DISCHARGE (KAF)1895232681
17CABI1CLARK FORK-CABINET GORGE DAM05-10-2021INFLOW (KAF)6359810079
18NOXM8CLARK FORK-NOXON RAPIDS DAM05-10-2021INFLOW (KAF)5784761676
19DRMM8CLARK FORK-NR DRUMMOND05-10-2021DISCHARGE (KAF)187MM
20CLUW1CLE ELUM-CLE ELUM LAKE05-10-2021INFLOW (KAF)338303112
21ORFI1CLEARWATER-AT OROFINO05-10-2021DISCHARGE (KAF)2406341171
22SPDI1CLEARWATER-AT SPALDING05-10-2021DISCHARGE (KAF)3955504678
23COEI1COEUR D ALENE-COEUR D ALENE LAKE05-10-2021INFLOW (KAF)962144866
24CIBW1COLUMBIA-AT INTL BOUNDARY05-10-2021DISCHARGE (KAF)25137MM
25BONO3COLUMBIA-BONNEVILLE DAM05-10-2021INFLOW (KAF)419075458377
26CHJW1COLUMBIA-CHIEF JOSEPH DAM05-10-2021INFLOW (KAF)253463056783
27GCDW1COLUMBIA-GRAND COULEE DAM05-10-2021INFLOW (KAF)271754083567
28JDAO3COLUMBIA-JOHN DAY DAM05-10-2021INFLOW (KAF)410625966969
29MCDW1COLUMBIA-MCNARY DAM05-10-2021INFLOW (KAF)400395839669
30PRWW1COLUMBIA-PRIEST RAPIDS DAM05-10-2021INFLOW (KAF)295524134571
31RRHW1COLUMBIA-ROCKY REACH DAM05-10-2021INFLOW (KAF)283483362584
32TDAO3COLUMBIA-THE DALLES DAM05-10-2021INFLOW (KAF)412595337077
33WANW1COLUMBIA-WANAPUM DAM05-10-2021INFLOW (KAF)295444044873
34WELW1COLUMBIA-WELLS DAM05-10-2021INFLOW (KAF)274063298483
35DEDI1DEADWOOD-NEAR LOWMAN05-10-2021INFLOW (KAF)5411348
36MODO3DESCHUTES-AT MOODY NR BIGGS05-10-2021DISCHARGE (KAF)1080119590
37ARDW1ENTIAT-NEAR ARDENVOIR05-10-2021DISCHARGE (KAF)196179110
38CHEI1FALL RIVER-NEAR CHESTER05-10-2021DISCHARGE (KAF)15426558
39CFMM8FLATHEAD-AT COLUMBIA FALLS05-10-2021DISCHARGE (KAF)3076358786
40KERM8FLATHEAD-SELI’Š KSANKA QLISPE’ DAM05-10-2021INFLOW (KAF)3455446377
41TRYO3GRANDE RONDE-TROY05-10-2021DISCHARGE (KAF)60981275
42REXI1HENRYS FORK-AT REXBURG05-10-2021DISCHARGE (KAF)28762846
43ANTI1HENRYS FORK-AT ST. ANTHONY05-10-2021DISCHARGE (KAF)33254161
44IPDI1HENRYS FORK-ISLAND PARK DAM05-10-2021INFLOW (KAF)12420162
45HODO3HOOD-NEAR TUCKER BRIDGE05-10-2021DISCHARGE (KAF)12314983
46SERO3JOHN DAY-AT SERVICE CK05-10-2021DISCHARGE (KAF)19540149
47KADW1KACHESS-KACHESS DAM05-10-2021INFLOW (KAF)7571105
48LAUW1KETTLE-AT LAURIER05-10-2021DISCHARGE (KAF)862134864
49PITW1KLICKITAT-NEAR PITT05-10-2021DISCHARGE (KAF)29835684
50BFEI1KOOTENAI-AT BONNERS FERRY05-10-2021STAGE (FT)MMM
51LEOI1KOOTENAI-AT LEONIA05-10-2021DISCHARGE (KAF)3014504160
52LYDM8KOOTENAI-LIBBY DAM05-10-2021INFLOW (KAF)4376562678
53LWRI1LITTLE WOOD-LITTLE WOOD DAM05-10-2021INFLOW (KAF)65510
54BERO3MALHEUR-AGENCY VALLEY DAM05-10-2021INFLOW (KAF)121961
55WRMO3MALHEUR-WARM SPRINGS DAM05-10-2021INFLOW (KAF)51049
56MYKO3MCKAY CREEK-NEAR PILOT ROCK05-10-2021DISCHARGE (KAF)4594
57PATW1METHOW-NEAR PATEROS05-10-2021DISCHARGE (KAF)748737102
58WGCM8MF FLATHEAD-NEAR WEST GLACIER05-10-2021DISCHARGE (KAF)1155137984
59CLFW1NACHES-NEAR CLIFFDEL05-10-2021DISCHARGE (KAF)283279101
60NACW1NACHES-NEAR NACHES05-10-2021DISCHARGE (KAF)39840299
61DWRI1NF CLEARWATER-DWORSHAK DAM05-10-2021INFLOW (KAF)1344184273
62FCFM8NF FLATHEAD-NEAR COLUMBIA FALLS05-10-2021DISCHARGE (KAF)944142666
63MONO3NF JOHN DAY-AT MONUMENT05-10-2021DISCHARGE (KAF)13428847
64CSDI1NF PAYETTE-CASCADE DAM05-10-2021INFLOW (KAF)19736554
65TONW1OKANOGAN-NEAR TONASKET05-10-2021DISCHARGE (KAF)1286129999
66OWYO3OWYHEE-OWYHEE DAM05-10-2021INFLOW (KAF)4213132
67EMMI1PAYETTE-NEAR EMMETT05-10-2021DISCHARGE (KAF)45696847
68ALFW1PEND OREILLE-ALBENI FALLS DAM05-10-2021INFLOW (KAF)6895920775
69HOPI1PEND OREILLE-PEND OREILLE LAKE NR HOPE05-10-2021LAKE ELEVATION (FT)MMM
70PIHI1PORTNEUF-AT POCATELLO05-10-2021DISCHARGE (KAF)144532
71PRTI1PRIEST-NEAR PRIEST RIVER05-10-2021DISCHARGE (KAF)30658952
72RCCM8ROCK CREEK-NEAR CLINTON05-10-2021DISCHARGE (KAF)23023797
73WHBI1SALMON-AT WHITEBIRD05-10-2021DISCHARGE (KAF)2520506450
74ARAI1SF BOISE-ANDERSON RANCH DAM05-10-2021INFLOW (KAF)12837834
75HHWM8SF FLATHEAD-HUNGRY HORSE DAM05-10-2021INFLOW (KAF)1364159985
76PLDI1SF SNAKE-PALISADES DAM05-10-2021INFLOW (KAF)1715293658
77SIFI1SNAKE-AB EAGLE ROCK NR IDAHO FALLS05-10-2021DISCHARGE (KAF)1612233069
78AFRI1SNAKE-AMERICAN FALLS RESERVOIR05-10-2021INFLOW (KAF)1306200465
79SNAI1SNAKE-AT BLACKFOOT05-10-2021DISCHARGE (KAF)839151156
80MILI1SNAKE-AT MILNER05-10-2021DISCHARGE (KAF)14316786
81WEII1SNAKE-AT WEISER05-10-2021DISCHARGE (KAF)2460382764
82SWAI1SNAKE-BELOW SWAN FALLS05-10-2021DISCHARGE (KAF)1504206573
83BRNI1SNAKE-BROWNLEE DAM05-10-2021INFLOW (KAF)2656406865
84IHDW1SNAKE-ICE HARBOR DAM05-10-2021INFLOW (KAF)97551559263
85JLKW4SNAKE-JACKSON LAKE AT DAM05-10-2021INFLOW (KAF)42573058
86LGSW1SNAKE-LITTLE GOOSE DAM05-10-2021INFLOW (KAF)96961564562
87LGDW1SNAKE-LOWER GRANITE DAM05-10-2021INFLOW (KAF)96961560662
88LMNW1SNAKE-LOWER MONUMENTAL DAM05-10-2021INFLOW (KAF)97481567562
89ALPW4SNAKE-NEAR ALPINE05-10-2021DISCHARGE (KAF)1265211660
90ANAW1SNAKE-NEAR ANATONE05-10-2021DISCHARGE (KAF)57421055454
91BFTI1SNAKE-NEAR BLACKFOOT05-10-2021DISCHARGE (KAF)795138857
92HEII1SNAKE-NEAR HEISE05-10-2021DISCHARGE (KAF)2785307491
93JKSW4SNAKE-NEAR JACKSON05-10-2021DISCHARGE (KAF)1065168563
94SHYI1SNAKE-NEAR SHELLEY05-10-2021DISCHARGE (KAF)1442204970
95LLKW1SPOKANE-AT LONGLAKE05-10-2021INFLOW (KAF)1134193059
96SPOW1SPOKANE-AT SPOKANE05-10-2021DISCHARGE (KAF)962MM
97SJMI1ST JOE-AT ST MARIES05-10-2021STAGE (FT)MMM
98SATI1ST MARIES-NEAR SANTA05-10-2021DISCHARGE (KAF)356752
99STRM8ST. REGIS-NEAR ST. REGIS05-10-2021DISCHARGE (KAF)12517372
100TNAW1TEANAWAY-BELOW FORKS05-10-2021DISCHARGE (KAF)7059118
101TEAI1TETON-NEAR ST. ANTHONY05-10-2021DISCHARGE (KAF)22933568
102RILW1TIETON-RIMROCK LAKE NEAR RIMROCK05-10-2021INFLOW (KAF)173166104
103PDTO3UMATILLA-AT PENDLETON05-10-2021DISCHARGE (KAF)6152117
104GIBO3UMATILLA-NEAR GIBBON05-10-2021DISCHARGE (KAF)3733111
105UMAO3UMATILLA-NEAR UMATILLA05-10-2021DISCHARGE (KAF)2817166
106TCHW1WALLA WALLA-NEAR TOUCHET05-10-2021DISCHARGE (KAF)284267
107WSRI1WEISER-NEAR WEISER05-10-2021DISCHARGE (KAF)12321457
108PESW1WENATCHEE-AT PESHASTIN05-10-2021DISCHARGE (KAF)1176120797
109UNDW1WHITE SALMON-NEAR UNDERWOOD05-10-2021DISCHARGE (KAF)19324778
110RIDI1WILLOW CREEK-RIRIE DAM05-10-2021INFLOW (KAF)82236
111EASW1YAKIMA-AT EASTON05-10-2021DISCHARGE (KAF)10089112
112KIOW1YAKIMA-AT KIONA05-10-2021DISCHARGE (KAF)55365185
113UMTW1YAKIMA-AT UMTANUM05-10-2021DISCHARGE (KAF)79881598
114KEDW1YAKIMA-KEECHELUS LAKE05-10-2021INFLOW (KAF)8879112
115PARW1YAKIMA-NEAR PARKER05-10-2021DISCHARGE (KAF)26231284